GW2259 Weather Reports


Display with metric or nautical units.
time (UTC)temp
F
wind
direction
speed
MPH
gust
MPH
rain 1hr
in
rain 24hr
in
rain mn
in
humidity
%
barometer
mb
20260507180032 53 121 7.0 10.0 0.01 0.78 0.78 96 1018.8
20260507174536 53 82 4.0 8.0 0.25 0.78 0.78 96 1018.2
20260507173036 53 34 3.0 9.0 0.78 0.78 0.78 95 1019.1
20260507171535 52 17 4.0 12.0 0.78 0.78 0.78 95 1018.5
20260507170036 52 327 6.0 16.0 0.77 0.77 0.77 95 1018.0
20260507163036 54 110 3.0 8.0 0.00 0.00 0.00 86 1019.8
20260507161539 55 56 5.0 12.0 0.00 0.00 0.00 85 1018.6
20260507160037 55 86 6.0 9.0 0.00 0.00 0.00 84 1018.9
20260507154536 55 84 5.0 12.0 0.00 0.01 0.00 84 1018.8
20260507153038 55 54 8.0 13.0 0.00 0.01 0.00 85 1018.6
20260507151537 55 68 6.0 12.0 0.00 0.01 0.00 84 1019.2
20260507150038 54 45 5.0 12.0 0.00 0.01 0.00 85 1018.9
20260507144532 55 61 5.0 10.0 0.00 0.03 0.00 85 1019.0
20260507143054 55 38 5.0 12.0 0.00 0.03 0.00 85 1018.8
20260507141554 55 27 6.0 11.0 0.00 0.03 0.00 85 1019.1
20260507140037 55 41 6.0 12.0 0.00 0.03 0.00 86 1019.3
20260507134533 54 37 6.0 11.0 0.00 0.38 0.00 86 1019.2
20260507133040 54 44 7.0 16.0 0.00 0.38 0.00 87 1019.0
20260507131538 54 20 7.0 14.0 0.00 0.38 0.00 89 1018.9
20260507130040 54 41 6.0 12.0 0.00 0.38 0.00 90 1019.1
20260507124537 54 41 7.0 13.0 0.00 0.38 0.00 91 1018.7
20260507123037 54 18 4.0 11.0 0.00 0.38 0.00 92 1018.8
20260507121537 54 57 5.0 11.0 0.00 0.38 0.00 92 1018.8
20260507120035 54 24 4.0 16.0 0.00 0.38 0.00 92 1018.5
20260507114536 54 34 6.0 14.0 0.00 0.38 0.00 92 1018.1
20260507113036 54 36 7.0 13.0 0.00 0.38 0.00 92 1018.1
20260507111535 54 11 8.0 14.0 0.00 0.38 0.00 91 1018.1
20260507110035 54 49 6.0 13.0 0.00 0.38 0.00 91 1017.9
20260507104537 54 50 6.0 11.0 0.00 0.38 0.00 91 1017.9
20260507103032 54 30 3.0 9.0 0.00 0.38 0.00 92 1018.1
20260507101536 54 39 5.0 8.0 0.00 0.38 0.00 91 1017.4
20260507100046 54 36 5.0 8.0 0.00 0.38 0.00 91 1017.6
20260507094536 54 63 6.0 10.0 0.00 0.38 0.00 91 1017.4
20260507093032 54 15 4.0 7.0 0.00 0.38 0.00 92 1017.4
20260507091540 55 338 5.0 11.0 0.00 0.38 0.00 92 1016.8
20260507090040 55 28 4.0 8.0 0.00 0.38 0.00 93 1017.0
20260507084541 55 49 4.0 8.0 0.00 0.38 0.00 92 1017.2
20260507083035 55 36 1.0 5.0 0.00 0.38 0.00 93 1017.2
20260507081532 55 51 2.0 3.0 0.00 0.38 0.00 94 1017.0
20260507080032 55 70 1.0 3.0 0.00 0.38 0.00 94 1017.3
20260507074536 55 0 0.0 0.0 0.00 0.38 0.00 95 1017.2
20260507073035 55 0 0.0 0.0 0.00 0.38 0.00 95 1017.0
20260507071537 55 189 1.0 3.0 0.00 0.38 0.00 95 1017.0
20260507070041 55 0 0.0 2.0 0.00 0.38 0.00 94 1016.2
20260507064558 55 62 1.0 3.0 0.00 0.38 0.00 95 1015.7
20260507063041 55 34 1.0 4.0 0.00 0.38 0.00 95 1015.6
20260507061537 55 0 0.0 0.0 0.00 0.38 0.00 95 1015.5
20260507060039 55 0 0.0 0.0 0.00 0.38 0.00 94 1015.6
20260507054535 55 0 0.0 0.0 0.00 0.38 0.00 94 1015.6
20260507053039 56 0 0.0 0.0 0.00 0.38 0.00 94 1015.6
20260507051540 56 0 0.0 0.0 0.00 0.38 0.00 94 1015.6
20260507050041 56 0 0.0 0.0 0.00 0.38 0.00 93 1015.6
20260507044537 56 0 0.0 0.0 0.00 0.38 0.38 93 1015.7
20260507043035 56 99 0.0 1.0 0.00 0.38 0.38 93 1015.7
20260507041535 56 99 0.0 1.0 0.00 0.38 0.38 93 1015.7
20260507040035 57 100 1.0 3.0 0.00 0.38 0.38 92 1015.5
20260507034535 57 100 1.0 2.0 0.00 0.38 0.38 92 1015.4
20260507033037 57 83 1.0 3.0 0.00 0.38 0.38 92 1015.1
20260507031536 57 94 2.0 3.0 0.00 0.38 0.38 92 1015.0
20260507030037 57 94 1.0 2.0 0.00 0.38 0.38 91 1015.1
20260507024537 57 64 0.0 2.0 0.00 0.38 0.38 91 1014.9
20260507023039 58 98 0.0 1.0 0.00 0.38 0.38 90 1014.7
20260507021540 58 0 0.0 4.0 0.00 0.38 0.38 89 1014.1
20260507020048 58 92 3.0 5.0 0.00 0.38 0.38 88 1013.8
20260507014544 59 83 3.0 6.0 0.00 0.38 0.38 87 1013.9
20260507013036 60 65 3.0 7.0 0.00 0.38 0.38 86 1013.7
20260507011538 61 55 2.0 6.0 0.00 0.38 0.38 85 1014.1
20260507010055 61 24 1.0 5.0 0.00 0.38 0.38 85 1013.9
20260507004536 61 323 2.0 6.0 0.00 0.38 0.38 84 1013.8
20260507003040 62 344 2.0 7.0 0.00 0.38 0.38 83 1013.4
20260507001536 62 8 3.0 7.0 0.00 0.38 0.38 82 1013.2
20260507000037 63 53 1.0 7.0 0.00 0.38 0.38 82 1013.1
20260506234535 64 27 3.0 7.0 0.00 0.38 0.38 79 1012.6
20260506233035 65 77 3.0 8.0 0.00 0.38 0.38 77 1012.5
20260506231546 65 39 2.0 8.0 0.00 0.38 0.38 77 1012.7
20260506230055 65 45 3.0 6.0 0.00 0.38 0.38 78 1012.6
20260506224539 66 20 3.0 7.0 0.00 0.38 0.38 76 1012.5
20260506223037 66 6 3.0 7.0 0.00 0.38 0.38 76 1012.6
20260506221538 66 27 3.0 8.0 0.00 0.38 0.38 76 1012.4
20260506220045 67 23 2.0 7.0 0.00 0.38 0.38 73 1012.7
20260506214539 65 26 3.0 8.0 0.00 0.38 0.38 78 1012.7
20260506213039 63 11 2.0 7.0 0.00 0.38 0.38 80 1013.1
20260506211535 62 28 1.0 9.0 0.00 0.38 0.38 85 1013.1
20260506210034 61 18 5.0 9.0 0.00 0.38 0.38 86 1012.9
20260506204538 59 53 4.0 7.0 0.00 0.38 0.38 92 1013.3
20260506203033 58 359 3.0 9.0 0.00 0.38 0.38 94 1013.6
20260506201539 57 307 4.0 8.0 0.00 0.38 0.38 94 1013.8
20260506200037 56 316 4.0 12.0 0.00 0.38 0.38 94 1014.0
20260506194532 55 338 5.0 8.0 0.00 0.38 0.38 94 1013.8
20260506193034 55 8 5.0 11.0 0.00 0.38 0.38 94 1014.1
20260506191536 55 338 6.0 11.0 0.00 0.38 0.38 94 1014.0
20260506190036 55 4 6.0 12.0 0.00 0.38 0.38 95 1014.3
20260506184542 54 319 5.0 11.0 0.00 0.38 0.38 95 1014.4
20260506183040 54 302 6.0 12.0 0.00 0.38 0.38 95 1014.6
20260506181531 54 311 6.0 10.0 0.00 0.38 0.38 95 1014.6